Wind_Speed
62 61 61 61 62 62 62 62 62 61 60 58 57 56 56 56 56 56 56 57 59 60 61 62 63 64 65 65 65 65 64 64 63 63 62 61 59 57 56 56 57 58 60 61 61 61 61 60 59 60 60 60 58 56 54 51 49 48 47 46 45 44 44 44 45 45 45 46 47 48 49 49 49 48 48 48 48 48 49 49 51 52 52 52 52 51
58 57 57 57 58 59 59 59 59 59 58 56 55 54 54 54 54 54 55 56 57 59 61 62 64 64 65 66 66 66 65 64 63 62 62 60 58 57 56 57 58 60 61 61 61 60 59 58 57 58 59 59 59 57 55 53 51 49 48 47 47 47 47 47 48 48 48 48 49 50 51 52 52 53 53 53 53 52 51 51 52 53 54 54 53 52
52 51 51 50 51 51 52 53 54 55 54 54 54 53 53 53 53 54 54 55 57 59 61 63 64 65 66 67 67 66 66 64 63 61 60 59 58 57 57 59 62 64 63 63 62 60 58 57 56 57 58 59 59 58 57 55 53 51 50 49 49 49 50 52 52 52 51 51 51 52 53 54 55 55 56 57 57 57 56 55 55 55 55 56 55 54
48 47 47 46 46 47 48 49 50 52 52 53 53 54 54 54 55 55 55 56 58 60 62 64 65 66 67 67 67 66 65 63 62 61 60 59 58 58 59 62 65 67 67 66 65 63 60 58 57 58 59 60 61 60 58 57 55 54 52 51 51 53 54 56 56 56 55 54 54 54 54 55 56 57 58 58 59 59 60 59 58 58 58 58 57 57
48 48 48 47 47 47 48 49 50 51 52 54 54 55 56 56 56 56 57 58 60 62 63 64 66 66 67 67 66 65 63 62 61 61 61 61 60 60 61 62 65 67 68 69 68 66 64 62 61 60 61 62 62 61 60 59 58 56 55 55 55 57 59 60 60 59 57 56 56 56 56 57 58 59 59 60 61 61 61 61 61 60 60 59 59 58
49 49 49 49 50 50 50 50 51 52 53 54 55 56 57 58 58 59 59 60 61 63 64 65 65 65 65 65 64 63 62 61 61 61 62 62 62 61 61 62 63 64 66 68 69 69 67 66 64 64 63 63 63 62 61 60 59 59 59 59 60 62 64 64 62 61 59 58 57 57 58 59 60 61 61 62 63 63 63 62 62 61 61 61 60 60
49 49 50 50 51 51 51 51 51 51 52 53 54 56 57 58 59 60 61 61 62 63 64 64 64 64 63 63 62 61 60 60 61 62 63 63 63 63 63 63 64 65 65 67 69 69 69 68 67 66 65 65 64 62 61 60 60 61 63 64 65 66 66 65 64 62 61 61 60 60 60 61 62 63 64 64 65 65 65 63 62 62 61 61 61 60
49 50 50 51 51 51 51 51 51 51 51 52 54 55 57 58 59 60 61 61 62 62 63 62 62 61 60 60 59 58 58 59 61 63 63 63 63 64 64 65 66 67 68 68 69 70 70 69 68 67 67 66 64 62 60 60 61 63 66 68 69 69 68 67 65 65 64 63 62 61 61 62 63 64 65 66 67 67 66 65 63 62 62 62 62 61
51 51 51 51 51 51 51 51 51 51 51 52 53 55 56 58 59 59 60 60 60 60 60 60 59 58 57 56 56 57 58 60 62 63 63 63 64 64 65 66 67 69 70 70 70 70 70 69 69 68 67 67 65 63 61 60 62 64 67 69 70 70 70 69 68 67 66 65 63 62 62 63 65 66 67 68 69 69 68 67 65 63 62 62 62 62
53 52 52 52 51 51 51 51 51 51 52 53 54 55 55 56 57 57 57 58 57 57 57 56 56 55 55 54 55 57 59 61 62 63 63 63 63 64 65 66 67 68 69 69 69 69 69 68 68 68 68 67 65 64 62 62 63 65 67 69 70 70 70 70 69 68 67 65 64 63 64 65 66 67 68 69 70 71 70 69 66 64 63 63 63 63
52 52 51 50 50 50 50 50 51 51 52 53 54 55 55 55 55 55 55 55 54 54 53 53 53 53 53 54 56 59 61 62 62 63 63 63 63 64 65 66 67 67 68 68 68 67 67 67 67 67 67 66 66 65 64 64 64 65 67 68 69 69 69 69 68 67 65 64 64 65 66 67 68 69 70 71 71 72 71 70 68 66 64 64 64 64
51 50 49 48 48 48 48 49 50 51 52 53 54 55 55 55 54 53 53 52 52 52 52 52 52 52 54 56 58 60 62 63 63 63 63 63 64 64 65 66 66 67 67 66 66 66 65 65 65 65 65 66 66 65 65 65 65 66 66 67 67 68 67 67 66 66 65 65 66 67 68 69 70 70 71 72 72 72 72 70 69 67 65 65 64 64
49 48 47 46 46 46 47 48 49 51 52 53 54 54 54 54 53 52 52 52 52 51 52 52 53 54 55 57 60 62 63 63 63 63 64 64 64 65 65 66 66 66 66 65 65 64 64 63 64 64 64 65 65 65 65 65 65 65 65 65 65 65 65 65 66 66 66 67 68 69 70 71 71 72 72 72 72 72 71 70 69 67 66 66 66 66
48 46 45 45 45 46 47 48 49 51 52 52 52 52 52 52 52 52 52 52 53 53 53 54 55 56 58 59 61 63 64 64 64 64 64 64 65 65 66 66 66 66 65 64 64 63 63 62 62 63 63 63 64 64 64 63 63 63 63 64 64 64 65 66 67 68 69 70 71 72 72 73 73 73 73 73 72 71 70 70 69 68 68 68 68 68
46 45 45 45 46 47 48 49 50 51 51 50 50 49 49 50 51 52 52 53 54 55 55 56 58 59 60 62 63 64 64 65 65 65 65 66 66 67 67 67 66 66 65 64 63 63 62 62 62 62 63 63 63 63 64 64 64 64 64 65 65 66 67 68 69 70 71 72 73 73 73 73 74 74 74 73 72 71 70 69 69 68 68 68 68 69
46 45 45 47 48 49 49 50 50 51 50 49 48 48 47 48 49 50 52 53 55 56 57 59 60 61 62 63 64 64 65 65 65 65 65 65 66 67 67 66 66 65 64 63 63 63 62 62 62 63 63 63 64 64 64 65 65 66 66 67 67 68 69 70 71 72 73 73 74 74 73 73 73 73 73 72 71 69 68 68 68 67 66 66 66 65
46 46 48 49 50 51 50 50 51 51 50 49 49 48 48 48 48 49 50 52 54 55 57 59 60 62 62 63 63 64 64 64 64 64 64 64 64 65 64 64 64 63 63 63 62 63 63 63 63 63 63 63 64 64 65 65 66 67 67 68 69 69 70 71 71 72 73 73 73 73 72 72 72 72 71 70 69 67 66 65 64 63 62 61 60 59
48 48 50 50 51 50 50 50 50 50 50 50 49 49 49 49 49 50 50 51 52 54 55 56 58 59 61 61 61 62 63 63 63 64 63 63 63 63 62 62 62 62 62 62 62 62 62 62 62 62 62 63 63 63 64 64 65 66 67 67 68 69 69 70 70 70 71 71 71 70 70 70 69 69 68 67 65 63 62 60 59 57 56 55 54 54
49 50 50 50 50 49 49 49 49 49 49 49 49 49 50 50 51 51 51 52 53 53 54 54 55 56 57 58 59 60 61 62 63 63 63 63 63 63 62 62 62 62 62 62 62 62 62 61 61 61 61 62 62 62 63 63 64 65 65 66 66 67 67 67 68 68 68 68 67 67 66 66 65 65 64 62 61 59 57 56 54 53 53 52 51 51
51 51 50 50 49 48 48 48 48 48 48 49 49 49 50 51 51 52 52 53 53 53 54 54 54 54 55 56 57 58 59 60 61 62 62 62 63 63 62 62 62 62 62 61 61 61 61 61 60 60 60 61 61 61 62 62 63 63 64 64 64 64 65 65 65 65 64 64 64 63 62 62 61 60 59 58 57 56 55 54 53 53 52 52 52 52
52 52 51 51 50 49 49 49 49 49 49 49 49 50 50 51 51 52 52 53 53 53 53 53 53 53 53 53 54 55 56 57 57 58 59 60 60 60 61 60 60 61 60 61 60 60 60 60 60 60 60 60 60 61 61 61 61 62 62 62 62 63 63 63 62 62 62 62 61 60 60 59 58 57 57 56 56 56 55 55 55 55 54 54 54 54
53 53 52 52 51 51 51 52 51 51 51 51 50 50 51 51 51 52 52 52 52 52 52 52 52 53 52 52 53 54 54 54 55 56 56 56 57 57 58 58 58 59 59 60 60 60 60 60 60 60 60 60 60 60 60 60 61 61 61 61 61 61 61 61 61 61 61 60 60 59 59 58 57 57 57 57 57 57 57 57 57 57 57 56 56 56
54 54 53 52 52 53 53 53 53 53 53 53 52 52 52 52 52 52 53 53 53 53 53 53 53 53 52 52 53 53 53 53 54 54 55 55 56 56 56 57 57 58 59 59 59 60 60 60 60 60 60 60 60 60 60 60 60 61 61 61 61 61 61 61 61 61 61 60 60 60 59 59 59 58 58 58 58 58 58 58 58 58 58 58 58 58
56 56 54 54 53 54 54 54 55 55 55 55 55 55 54 54 54 54 54 54 54 54 54 54 54 53 53 53 53 53 53 54 54 54 55 55 56 57 57 57 58 59 59 60 60 60 61 61 61 61 61 61 61 61 61 61 61 61 61 61 61 61 61 61 61 61 61 61 61 60 60 60 60 60 60 59 59 59 59 58 58 58 58 58 58 58
58 58 57 56 55 55 55 55 56 56 57 57 57 57 57 56 56 56 56 56 56 56 56 56 55 55 55 55 55 55 56 56 56 56 56 57 58 58 59 59 59 60 61 62 62 62 62 62 62 62 62 62 62 62 62 62 62 62 62 62 62 62 62 62 62 62 62 62 62 62 61 61 61 61 60 60 60 59 59 59 58 58 58 58 58 58
59 60 59 59 58 57 57 57 57 58 58 59 59 59 59 58 58 58 57 57 57 57 57 58 58 58 58 58 57 58 58 58 58 58 59 59 60 60 61 61 61 62 63 63 63 63 63 64 64 64 64 64 64 64 64 64 64 64 65 65 65 65 65 65 65 64 64 64 63 63 63 62 62 62 61 61 60 60 59 59 59 58 58 58 58 58
59 60 61 60 60 59 59 59 59 59 59 60 60 61 61 60 60 59 59 59 59 59 59 59 60 60 60 60 60 60 61 61 61 61 61 61 62 62 63 63 63 63 64 65 65 65 65 66 66 66 66 66 67 67 67 67 67 67 67 68 68 68 68 68 68 67 67 67 66 66 65 64 63 63 62 62 61 61 60 60 60 59 59 59 59 59
60 61 61 61 61 61 61 60 60 60 60 61 61 62 62 62 61 61 61 61 60 60 60 60 61 61 61 61 62 63 63 63 63 64 64 63 63 64 65 65 64 65 66 66 67 67 67 67 68 68 68 68 68 69 69 69 69 69 70 70 70 70 70 70 70 70 70 69 69 68 67 66 66 65 64 63 63 62 62 62 61 61 61 61 61 61
61 61 62 62 62 62 62 62 62 62 62 62 63 63 63 63 63 63 64 63 62 61 61 62 62 62 62 63 64 64 64 65 66 66 66 65 66 67 67 67 66 66 67 67 68 68 68 68 69 69 69 70 70 70 70 70 70 70 70 70 71 71 71 71 71 71 71 70 70 70 69 68 68 67 66 66 65 65 64 64 64 63 63 63 63 63
61 61 62 63 63 64 64 64 64 64 64 64 64 65 65 65 65 65 66 65 64 64 64 64 64 64 64 64 65 65 66 67 68 68 68 67 68 69 70 69 68 69 69 69 68 68 69 69 70 70 70 71 71 71 71 71 71 71 71 71 71 71 71 71 71 70 70 70 70 70 69 69 69 68 68 67 67 66 66 66 65 65 65 64 64 64
61 61 62 62 63 64 65 65 66 66 66 66 67 67 67 67 67 67 67 67 67 67 67 67 66 66 66 66 66 66 67 68 69 69 69 69 70 71 71 70 70 71 71 70 70 69 70 71 70 70 70 71 72 72 72 72 71 71 71 71 71 71 71 71 71 71 70 70 70 70 70 69 69 69 68 68 67 67 66 66 65 65 64 64 64 64
61 61 62 62 63 64 64 65 66 67 67 68 68 69 69 69 69 69 69 69 69 69 69 69 69 69 68 68 67 68 69 70 70 70 69 69 71 72 72 71 71 72 73 72 72 71 71 72 72 71 71 71 72 72 73 73 73 73 73 73 73 73 73 72 72 72 72 71 71 71 71 70 70 69 69 68 68 67 66 65 65 64 63 63 63 63
63 63 63 63 63 64 64 65 66 66 67 68 68 69 70 70 71 71 71 71 71 71 71 71 71 71 70 70 70 70 71 71 71 71 70 70 71 72 72 72 72 73 74 74 74 73 73 73 74 74 73 73 73 73 74 74 74 74 74 74 74 74 75 74 74 73 73 73 73 73 72 72 71 71 70 70 69 68 67 66 65 64 63 62 61 61
65 65 65 65 65 65 66 66 66 67 67 67 68 69 69 70 71 71 72 73 73 73 73 73 73 73 73 73 73 73 74 74 74 74 73 72 72 73 74 74 74 75 75 76 76 76 75 75 75 75 75 76 76 75 75 76 76 76 76 76 76 76 76 76 75 75 75 75 75 74 74 74 73 73 72 72 71 70 70 68 67 66 64 63 62 61
68 68 68 68 68 68 68 68 68 68 68 69 69 69 70 70 71 71 72 73 73 74 74 74 74 75 75 75 75 75 76 77 77 76 76 75 75 76 76 76 76 77 77 77 77 77 77 77 77 77 77 77 77 78 78 77 77 77 77 77 77 77 77 76 76 76 76 76 75 75 75 74 74 73 73 73 72 72 71 70 69 68 67 65 64 62
69 69 70 70 70 70 71 71 71 71 71 71 71 72 72 72 72 73 73 73 74 74 74 75 75 76 76 76 76 77 78 78 79 78 78 78 78 78 78 78 79 79 78 78 79 79 78 78 78 78 78 78 78 79 79 79 78 78 78 78 78 78 77 77 76 76 75 75 75 75 74 74 73 73 73 72 72 71 71 70 70 69 68 66 65 64
69 69 70 71 71 71 72 72 72 72 73 73 73 74 74 74 75 75 75 75 76 76 76 76 77 77 78 78 78 79 79 80 80 79 79 80 80 79 79 80 80 80 79 79 80 80 80 79 79 79 79 79 78 79 79 79 79 78 78 78 78 77 77 77 76 75 74 74 74 74 73 72 72 71 71 71 70 69 69 69 68 68 67 66 65 64
66 67 68 69 69 69 70 71 71 72 72 73 73 74 75 75 76 76 76 77 77 77 78 78 78 79 79 80 80 81 81 81 81 81 81 81 81 81 80 80 81 81 81 80 80 80 80 80 79 79 79 79 79 79 79 78 78 78 78 78 78 77 76 76 76 75 74 73 73 73 72 71 70 70 69 69 68 67 67 67 67 66 65 64 63 63
62 63 64 64 65 65 66 67 68 69 70 70 71 72 72 73 74 74 75 75 76 76 77 78 78 79 79 79 80 80 80 81 81 81 81 80 80 80 80 79 80 80 80 80 80 79 79 79 79 78 78 78 78 78 78 77 77 77 77 77 76 76 75 75 74 74 73 73 73 72 71 71 70 69 68 68 67 66 65 65 65 64 63 61 61 60
57 57 58 59 60 60 61 62 63 64 64 65 66 67 67 68 69 70 71 71 72 72 73 74 74 75 76 76 76 77 77 77 77 77 77 77 77 77 77 76 76 77 77 77 76 76 76 76 76 76 76 75 75 75 75 75 75 75 74 74 73 74 74 73 72 72 72 72 71 71 70 70 69 68 67 67 66 66 65 65 64 63 62 60 59 58
52 53 54 54 55 56 56 57 58 58 58 59 59 60 61 61 62 63 63 64 65 66 67 67 68 69 69 70 70 71 71 71 71 72 72 72 72 72 72 72 72 72 72 72 72 72 71 71 71 71 72 71 71 71 71 71 71 71 70 69 70 71 71 70 69 69 70 70 69 69 69 68 68 67 67 66 66 65 65 64 63 62 62 60 58 56
49 50 50 51 51 51 52 52 53 53 53 53 54 54 55 55 56 56 56 57 58 58 59 59 60 60 61 62 63 63 63 63 64 64 65 65 65 65 65 66 66 66 66 66 66 66 66 66 66 66 66 67 66 66 66 67 67 66 65 65 66 67 67 67 66 66 65 65 66 67 66 65 65 65 65 64 64 63 63 62 61 60 59 58 57 55
48 48 49 49 49 49 50 50 50 50 50 50 50 51 51 51 51 51 52 52 53 53 53 53 54 54 55 56 56 57 57 57 58 58 59 59 59 59 60 60 60 60 60 60 61 61 62 61 61 61 62 62 61 61 61 62 62 61 61 61 61 61 61 62 62 61 60 60 61 62 62 61 61 61 61 60 60 59 58 57 57 56 56 55 55 54
47 47 48 48 48 48 49 49 49 49 49 49 49 50 50 50 49 49 50 50 51 51 51 51 51 51 52 53 53 54 54 54 54 55 55 55 56 56 56 56 57 57 57 57 57 58 58 58 58 58 58 58 58 58 58 59 58 58 57 57 57 57 57 58 58 57 56 57 57 58 57 57 57 57 57 57 56 56 55 54 54 54 54 54 54 54
46 46 47 47 48 48 49 49 49 50 50 50 50 50 50 50 50 50 50 50 50 51 51 50 50 50 51 52 52 52 52 52 52 53 53 54 54 54 54 54 55 55 55 55 55 56 56 56 56 56 56 56 55 56 56 56 56 56 55 55 55 54 55 55 55 54 54 54 55 55 55 54 54 54 54 54 54 54 53 53 53 53 54 54 54 54
45 46 46 47 47 48 48 49 49 50 50 50 51 51 51 51 51 51 51 51 51 51 51 51 51 51 51 52 52 52 52 52 52 52 52 52 52 53 53 53 53 54 54 54 54 54 55 55 55 55 55 55 55 55 55 55 55 55 55 55 54 53 53 54 54 53 53 53 53 53 53 52 51 51 52 52 52 52 53 53 54 54 55 55 55 55
44 44 45 46 46 47 48 48 49 49 50 50 51 51 51 52 52 52 52 52 52 52 52 52 52 52 52 53 52 52 52 52 52 52 52 52 52 52 52 52 53 53 53 54 54 54 54 55 55 55 54 54 54 55 55 54 54 54 54 54 54 54 54 54 54 54 53 53 53 53 52 51 50 50 50 50 50 50 51 52 53 54 55 56 56 57
43 43 44 44 45 46 47 47 48 48 49 50 50 51 51 51 52 52 52 53 53 53 53 53 53 53 53 53 53 52 52 52 52 52 52 52 51 51 51 52 52 52 53 53 54 54 54 54 55 54 54 54 54 55 55 55 54 54 54 55 54 54 54 55 55 54 54 53 53 53 52 51 50 49 49 49 48 49 49 50 51 53 54 55 56 57
41 42 43 43 44 45 45 46 47 47 48 49 49 50 50 51 51 52 52 52 53 53 53 53 53 53 53 53 53 53 52 52 52 52 52 52 51 51 51 51 52 52 53 53 53 54 54 54 55 55 55 54 54 55 55 55 55 54 54 55 55 55 55 55 55 55 54 54 54 53 52 50 49 48 47 46 46 47 47 48 49 50 51 53 54 56
40 41 41 42 43 43 44 45 46 46 47 48 48 49 49 50 50 51 51 52 52 52 52 53 53 53 53 53 53 53 53 52 52 52 52 52 51 51 51 51 51 52 52 53 53 53 54 54 54 54 54 54 54 54 55 55 55 55 55 55 55 55 55 56 56 55 55 54 53 52 51 49 48 47 45 45 45 45 45 45 46 47 48 49 50 51
39 40 40 41 42 43 43 44 45 45 46 47 48 48 49 49 49 50 50 51 51 51 52 52 52 52 53 53 53 53 53 52 52 52 52 52 51 51 51 51 51 51 52 52 52 53 53 53 53 54 54 54 53 53 54 54 55 55 55 55 55 56 56 56 56 55 54 53 53 52 51 49 48 47 45 45 44 44 44 44 44 45 45 45 45 46
Wind_Direction
242 243 243 244 245 246 247 248 249 249 250 250 251 251 252 252 252 253 253 254 255 255 255 255 254 253 252 252 252 251 252 252 253 254 256 257 259 261 263 265 266 267 266 266 266 265 264 263 263 264 266 267 267 266 264 262 262 262 262 264 265 267 270 271 272 273 273 273 273 273 273 272 273 273 274 275 276 277 279 281 282 282 282 282 283 284
242 242 243 243 244 245 245 246 247 247 248 248 249 249 249 250 251 252 252 253 254 255 255 255 255 254 253 253 252 251 251 251 252 253 255 258 260 262 264 264 263 262 260 261 261 261 261 261 262 264 265 266 266 265 264 262 262 262 263 264 266 268 270 271 271 271 272 272 272 273 274 274 275 275 276 276 277 278 279 281 282 282 283 283 283 282
239 239 240 240 241 242 243 243 244 245 245 246 246 247 247 248 249 250 251 253 254 255 255 255 255 255 254 254 253 252 251 251 252 253 254 256 258 260 260 258 256 254 254 255 257 258 258 259 260 263 265 266 266 265 264 263 263 263 264 265 267 269 271 272 271 271 270 270 271 272 273 275 276 277 278 279 279 280 280 280 281 282 282 282 282 282
235 236 238 239 240 241 242 242 243 243 244 244 245 246 247 248 249 250 251 252 253 254 255 255 255 255 255 254 254 253 252 252 252 253 253 254 254 255 255 253 251 250 250 252 254 255 257 258 259 262 264 265 266 266 265 264 264 264 264 266 268 271 273 273 272 271 270 270 270 271 273 274 276 277 278 279 280 281 281 280 280 280 281 282 282 282
235 237 239 240 242 243 244 244 245 245 245 246 246 247 248 249 249 250 250 251 252 253 254 255 255 255 255 255 254 254 253 253 253 253 253 253 253 253 252 251 251 250 250 251 252 254 255 257 259 261 263 264 265 265 266 266 266 266 266 267 270 273 275 274 273 271 270 270 271 272 273 274 276 277 278 280 281 281 282 281 280 279 279 281 282 282
238 239 241 243 245 246 247 248 248 248 248 248 249 249 249 249 249 249 250 250 251 252 253 254 254 255 255 255 254 254 253 253 253 253 253 253 253 254 253 251 250 250 250 250 251 253 254 256 258 260 261 262 263 265 266 267 268 269 269 271 273 275 275 274 272 271 270 271 272 273 275 275 276 277 278 279 281 282 282 281 280 278 278 279 281 282
241 242 244 246 248 249 250 250 251 251 251 251 251 251 251 250 250 249 249 249 250 251 252 253 253 254 254 254 254 253 253 252 252 252 252 253 254 254 254 252 250 248 248 248 249 250 252 253 255 257 259 260 262 264 266 268 270 271 272 273 274 274 274 272 271 271 272 272 274 275 275 276 276 276 277 279 280 281 282 282 280 278 278 279 280 282
244 245 246 248 249 251 252 252 253 253 253 253 253 252 252 251 250 250 249 249 250 250 251 251 252 252 252 252 252 252 252 251 251 251 252 252 253 253 253 251 249 246 245 245 246 247 249 251 253 255 257 259 261 263 264 266 268 270 271 272 272 272 271 271 271 272 273 274 275 276 277 276 276 276 277 278 279 281 281 281 280 278 278 279 280 282
245 246 248 249 250 252 253 253 254 255 255 255 254 253 252 251 251 250 250 250 249 249 249 250 250 250 250 250 250 250 251 251 251 252 252 252 252 251 250 249 247 246 245 244 245 246 248 251 253 255 258 259 261 262 262 263 264 266 268 268 269 269 270 270 271 272 273 274 275 276 277 277 277 277 277 278 279 280 281 281 280 278 278 279 280 282
246 247 248 249 250 252 253 254 254 255 255 255 254 253 252 251 250 250 250 249 249 248 248 247 248 248 248 248 249 249 250 251 252 252 251 251 250 249 248 246 246 245 245 246 247 248 251 253 255 257 259 260 261 261 261 261 261 262 264 265 266 268 269 270 271 272 273 274 275 276 277 277 277 277 277 277 278 279 280 281 280 279 278 278 280 282
247 248 248 249 250 251 252 253 253 254 254 254 254 253 251 250 249 249 248 248 247 246 246 245 245 245 246 247 248 250 251 251 251 251 250 249 247 246 245 245 245 246 247 248 250 252 253 255 257 258 259 260 261 261 261 260 260 261 262 263 264 266 267 268 270 271 272 273 275 276 276 276 277 276 276 277 277 278 280 280 280 279 278 278 280 281
248 248 249 249 250 250 251 251 252 252 252 252 251 250 249 248 247 246 246 245 245 244 244 243 243 244 245 247 249 250 250 250 250 249 248 246 245 244 244 245 247 248 250 251 253 254 255 256 257 258 259 259 260 261 261 261 261 261 262 263 264 265 267 268 269 271 272 273 274 275 275 275 275 276 276 276 277 278 279 279 279 279 278 278 279 281
249 249 249 249 249 249 250 250 250 250 250 249 247 246 245 245 244 243 243 242 242 242 242 242 242 243 244 246 248 249 249 249 248 247 245 244 243 243 245 247 249 251 252 254 255 255 256 257 257 257 258 259 260 261 261 262 262 263 263 264 265 266 267 268 269 270 271 272 273 273 274 274 274 275 275 276 277 277 278 279 279 278 278 279 280 280
249 249 249 249 249 249 249 249 249 248 247 245 244 242 241 241 240 240 239 239 240 240 240 241 242 243 244 245 247 248 248 248 247 246 244 243 243 244 246 248 250 251 253 254 255 255 256 256 257 257 258 259 260 261 262 262 263 263 264 265 265 266 267 268 269 270 270 271 271 272 272 273 274 274 275 276 277 278 278 279 279 279 279 280 280 280
249 249 249 248 248 248 248 247 247 246 244 243 241 240 239 238 237 237 237 237 237 238 239 240 241 242 243 244 245 245 246 246 245 245 244 244 245 246 247 249 250 251 252 253 253 254 255 256 256 257 257 258 259 260 261 262 262 263 264 264 265 266 266 267 268 269 269 270 270 271 272 273 274 275 275 276 277 278 279 279 279 279 279 280 280 280
248 248 247 247 246 246 246 245 244 243 241 240 239 238 238 238 237 237 236 236 237 237 238 239 240 240 241 242 242 243 243 243 243 243 244 244 245 246 247 248 249 250 251 251 252 253 254 254 255 256 256 257 258 259 260 260 261 262 262 263 264 265 265 266 267 268 269 269 270 271 272 273 274 275 276 277 278 278 279 279 279 279 279 279 279 279
246 245 245 244 244 243 243 242 240 239 238 237 237 237 238 238 238 238 238 238 238 238 238 239 240 240 241 241 241 241 241 241 241 242 242 243 244 245 246 247 248 249 250 251 251 252 253 253 254 255 256 256 257 258 259 260 260 261 262 262 263 264 265 266 267 268 269 270 271 272 273 273 274 275 276 277 277 278 278 278 278 278 278 278 278 278
242 241 241 241 240 239 238 237 236 235 234 234 234 235 236 237 238 239 239 239 239 239 240 240 241 241 241 241 241 241 241 241 241 241 242 242 243 244 245 246 247 248 249 249 250 251 252 253 254 254 255 256 257 258 259 259 260 261 262 263 263 264 265 266 267 268 269 270 271 272 273 273 274 275 275 276 276 276 276 276 276 276 276 276 276 277
238 237 236 236 236 235 234 233 232 231 231 231 231 232 234 235 237 238 238 239 240 240 240 241 241 242 242 242 243 243 243 242 243 243 243 243 243 244 245 245 246 247 248 248 249 250 251 252 253 254 255 256 257 258 259 259 260 261 262 263 264 265 266 267 268 269 270 271 271 272 272 273 273 274 274 274 274 274 274 274 274 275 275 276 276 277
233 232 232 231 231 231 231 231 230 229 229 229 229 230 231 233 234 235 236 237 238 239 239 240 240 241 242 242 243 244 244 244 244 244 244 244 244 245 245 245 246 246 247 247 248 249 250 251 252 253 254 255 256 257 258 259 260 261 262 263 264 265 266 267 268 269 269 270 271 271 271 272 272 272 272 273 273 273 274 274 275 275 276 277 277 278
230 230 229 229 229 229 230 230 230 229 229 229 229 230 231 232 233 234 235 235 236 237 238 239 239 240 241 241 242 243 243 244 244 245 245 245 246 246 246 246 246 247 247 248 248 249 250 250 251 252 253 254 255 256 257 259 260 261 262 262 263 264 265 266 267 268 269 269 270 270 270 271 271 271 272 273 273 274 275 276 276 277 278 278 278 279
229 229 229 229 229 229 230 230 230 230 230 230 231 231 231 232 233 234 235 235 236 237 238 238 239 240 241 241 242 243 243 244 245 246 246 247 247 247 248 248 248 249 249 249 249 250 250 251 251 252 253 254 255 256 257 258 259 260 261 262 263 264 265 266 267 267 268 268 269 269 270 270 271 272 273 274 275 276 276 277 278 278 278 279 279 279
228 229 230 230 230 231 231 232 232 232 232 232 233 233 234 234 235 235 236 237 237 238 239 240 240 241 241 242 243 244 244 245 246 247 248 248 249 249 249 250 250 251 251 251 251 251 252 252 253 253 254 255 256 256 257 258 259 260 261 262 263 264 265 265 266 267 267 268 268 269 270 271 272 273 274 275 276 276 277 278 278 278 278 278 278 278
229 231 232 232 233 233 234 234 234 234 234 234 235 235 236 236 237 237 238 238 239 240 241 242 242 243 244 245 245 246 246 247 247 248 249 250 250 250 251 251 251 252 252 252 253 253 253 254 254 255 256 256 257 258 258 259 259 260 261 262 262 263 264 265 265 266 267 268 268 269 270 271 272 273 274 275 276 277 277 277 278 278 278 278 277 277
231 232 233 234 235 235 235 235 236 236 236 236 236 237 237 238 239 239 240 240 241 242 243 244 245 246 246 247 247 248 249 249 249 250 250 251 251 251 252 252 252 253 253 254 254 254 255 255 256 256 257 258 258 259 259 259 260 260 261 261 262 263 263 264 265 266 266 267 268 269 270 271 272 273 274 275 276 276 276 277 277 277 277 277 276 276
233 234 235 236 236 236 237 237 237 237 237 237 238 238 239 240 240 241 242 242 243 244 245 246 246 247 248 248 249 250 250 251 251 251 252 252 253 253 253 253 254 254 255 255 256 256 256 257 257 258 258 259 259 259 260 260 260 260 261 261 262 263 263 264 265 266 266 267 268 269 270 271 272 273 273 274 274 275 275 275 276 276 276 276 276 275
234 235 237 237 238 238 238 238 238 238 238 238 239 239 240 241 242 242 243 244 244 245 246 247 247 248 249 250 250 251 251 252 253 253 253 254 254 255 255 255 255 256 256 257 257 258 258 258 259 259 259 260 260 260 260 261 261 261 262 262 263 263 264 265 265 266 267 268 269 269 270 271 271 272 272 273 273 273 274 274 274 275 275 275 275 275
236 236 237 237 238 238 238 238 238 238 239 239 240 240 241 242 243 243 244 245 245 246 246 247 248 249 250 251 251 252 253 254 254 255 255 255 256 256 257 257 257 258 258 258 259 259 259 260 260 260 260 261 261 261 261 262 262 262 263 263 264 264 265 265 266 267 268 268 269 270 271 271 272 272 272 273 273 273 273 273 273 274 274 274 275 275
239 239 238 238 238 238 239 239 239 239 239 240 240 241 242 242 243 244 245 246 246 247 247 248 249 250 251 251 252 253 254 255 255 256 256 257 257 258 258 259 259 260 260 260 261 261 261 261 261 262 262 262 262 263 263 263 264 264 264 265 265 266 266 267 267 268 269 270 270 271 272 272 273 273 274 274 274 274 274 274 274 274 274 274 275 275
244 243 242 241 241 240 240 240 240 240 240 240 241 241 242 242 243 244 245 246 247 248 248 249 250 251 252 252 253 254 255 256 256 257 257 258 258 259 259 260 261 261 262 263 263 263 264 264 264 264 264 264 264 265 265 266 266 266 267 267 267 268 268 269 269 270 270 271 272 272 273 274 274 275 275 275 276 276 276 276 275 275 275 275 275 275
249 248 247 246 245 244 243 243 242 242 242 242 242 242 243 243 243 244 245 246 247 248 249 250 251 251 252 253 254 255 256 257 257 258 258 259 260 260 261 262 263 263 264 265 265 266 266 266 266 266 266 266 267 267 268 268 268 269 269 269 270 270 271 271 271 272 272 273 273 274 274 275 275 276 276 277 277 277 277 277 277 277 277 277 277 277
252 252 251 251 250 249 248 248 247 246 246 245 245 245 245 245 245 246 246 247 247 248 249 250 251 251 252 253 254 255 256 258 258 259 259 260 261 261 262 263 264 264 265 266 267 268 268 269 269 269 269 269 269 269 270 270 270 271 271 271 272 272 272 273 273 273 274 274 274 275 275 275 276 276 276 277 277 277 278 278 278 278 278 278 278 278
253 254 254 253 253 253 253 252 252 251 251 250 250 250 250 249 250 249 250 250 250 250 251 251 252 253 253 254 255 256 257 259 259 260 260 261 262 263 264 265 266 266 267 267 268 269 269 270 271 271 272 271 271 271 272 272 272 273 273 273 273 274 274 274 274 275 275 275 275 275 275 275 276 276 276 276 276 277 277 277 278 278 279 279 279 279
254 254 255 255 255 255 255 255 255 255 255 255 254 254 254 254 254 254 254 254 254 255 255 255 256 256 257 257 258 258 259 260 261 262 263 263 264 265 266 267 267 268 268 269 269 270 270 271 271 272 273 273 273 273 274 274 274 274 274 275 275 275 275 275 275 275 275 275 275 275 275 276 276 276 276 276 276 276 276 276 277 277 278 278 279 279
254 255 255 255 255 256 256 256 256 256 257 257 257 257 257 257 257 257 257 258 258 258 259 259 259 260 261 261 262 262 262 263 264 265 265 266 266 266 267 268 269 269 270 270 270 271 271 271 272 272 273 273 274 274 274 275 275 275 275 275 275 275 275 275 275 275 275 275 275 275 275 275 275 275 275 275 275 275 275 275 275 276 276 277 278 278
254 254 254 255 255 255 256 256 256 257 257 257 258 258 258 258 258 259 259 259 260 260 260 261 261 262 262 263 263 264 264 264 265 266 266 266 267 267 268 269 269 269 270 270 271 271 271 272 272 272 273 273 273 274 274 274 274 275 275 275 275 275 275 275 275 275 275 275 275 275 275 274 274 274 274 274 274 274 274 274 274 274 275 275 276 277
253 253 253 254 254 255 255 256 256 256 257 257 257 258 258 258 259 259 259 260 260 260 261 261 261 262 262 263 263 264 264 265 265 266 266 266 267 267 268 268 269 269 270 270 271 271 271 272 272 272 272 273 273 273 273 273 274 274 274 274 274 274 274 274 274 274 274 274 274 274 274 274 274 273 273 273 273 273 273 273 273 273 273 274 274 275
251 252 252 253 253 254 254 255 255 256 256 257 257 257 258 258 259 259 259 260 260 260 261 261 261 262 262 263 263 264 264 265 265 266 266 267 267 268 268 268 269 269 270 270 270 271 271 272 272 272 272 272 272 272 272 273 273 273 273 273 273 273 273 274 274 273 273 273 273 273 273 273 273 272 272 272 272 272 272 272 272 272 272 273 273 274
250 251 251 252 253 253 254 254 255 255 256 256 256 257 257 258 258 259 259 259 260 260 260 261 261 262 262 263 263 264 264 265 266 266 267 267 268 268 268 268 269 269 270 270 270 270 271 271 272 272 272 272 272 272 272 272 273 273 273 273 273 273 273 273 273 273 273 273 272 272 272 272 272 272 271 271 271 271 271 271 271 271 272 272 272 273
249 250 250 251 252 252 253 253 254 255 255 256 256 256 257 257 258 258 259 259 260 260 260 261 261 262 262 263 263 264 264 265 265 266 267 267 268 268 268 268 269 269 269 270 270 270 271 271 271 271 271 272 272 272 272 272 272 272 272 272 273 273 273 272 272 272 272 272 272 271 271 271 271 271 271 271 270 270 270 270 270 271 271 271 271 272
248 249 250 250 251 251 252 253 253 254 255 255 256 256 257 257 258 258 259 259 260 260 260 261 261 262 262 263 263 264 264 265 265 266 266 267 267 268 268 268 268 269 269 270 270 270 271 271 271 271 271 272 272 272 272 272 272 272 272 272 272 272 272 272 272 272 271 271 271 271 271 271 271 271 271 270 270 270 270 270 270 270 271 271 271 271
249 249 249 250 251 251 252 252 253 254 254 255 255 256 257 257 258 258 259 259 260 260 260 261 261 262 262 263 263 264 264 265 265 265 266 266 267 267 268 268 268 269 269 270 270 270 271 271 271 271 271 272 272 272 272 272 273 273 273 273 272 272 273 273 273 272 272 272 272 272 272 272 272 272 271 271 271 271 272 272 271 271 271 271 271 271
249 250 250 250 251 251 252 252 253 253 254 255 255 256 256 257 258 258 259 259 260 260 260 261 261 262 262 263 263 263 264 264 265 265 266 266 267 267 268 268 269 269 270 270 270 270 271 271 271 272 272 272 272 273 273 273 273 273 273 273 273 273 273 273 273 273 272 272 273 273 273 273 273 273 272 272 272 272 272 272 272 272 271 271 271 270
250 250 251 251 252 252 252 253 253 253 254 254 255 255 256 257 257 258 258 259 259 260 260 261 261 261 262 262 263 263 264 264 265 265 266 266 267 267 268 268 269 269 270 270 270 271 271 271 272 272 272 272 273 273 273 273 273 274 274 274 274 274 274 274 274 273 273 273 273 274 274 274 273 273 273 272 271 270 270 270 270 270 270 269 269 268
251 251 251 252 252 252 253 253 253 254 254 255 255 256 256 257 257 258 258 259 259 260 260 261 261 262 262 262 263 263 264 264 265 265 266 266 267 267 268 268 269 269 270 270 270 271 271 271 272 272 272 273 273 273 273 273 273 274 274 274 274 274 274 274 274 274 274 274 274 274 274 274 275 274 274 273 272 270 269 268 267 267 267 267 267 267
251 252 252 252 253 253 253 253 254 254 255 255 255 256 256 257 257 258 258 259 259 260 260 261 261 261 262 262 263 263 264 265 265 265 266 266 267 267 268 268 269 269 270 270 270 271 271 271 271 272 272 273 273 273 273 273 273 274 274 274 274 274 274 274 274 274 274 274 274 275 275 275 275 275 274 274 273 272 271 269 268 267 266 266 266 266
252 252 252 253 253 253 254 254 254 255 255 255 256 256 257 257 258 258 258 259 259 260 260 261 261 261 262 262 263 263 264 264 265 265 266 266 267 267 268 268 269 269 269 270 270 271 271 271 271 272 272 272 273 273 273 273 273 274 274 274 275 275 275 275 275 275 275 274 274 275 275 275 275 275 274 274 274 273 273 272 270 269 268 267 267 266
252 253 253 253 254 254 254 255 255 255 256 256 256 257 257 257 258 258 259 259 259 260 260 261 261 261 262 262 263 263 264 264 265 265 266 266 267 267 268 268 269 269 269 270 270 270 271 271 271 271 271 272 272 272 273 273 273 273 274 274 275 275 275 275 275 275 275 275 274 274 274 274 274 274 273 273 273 273 272 272 271 270 270 269 268 267
253 254 254 254 255 255 255 256 256 256 256 257 257 257 257 258 258 258 259 259 260 260 260 261 261 261 261 262 262 263 263 264 264 265 265 266 266 267 267 268 269 269 269 270 270 270 270 270 270 271 271 271 271 272 272 272 273 273 273 273 274 274 274 274 274 274 274 274 274 273 273 272 272 272 272 272 272 272 271 271 271 271 270 270 269 269
254 255 255 256 256 256 257 257 257 257 257 258 258 258 258 259 259 259 259 260 260 260 261 261 261 261 261 262 262 262 263 263 263 264 264 265 266 266 267 268 268 269 269 269 269 269 270 270 270 270 270 270 270 271 271 272 272 272 272 273 273 273 273 273 273 273 273 272 272 271 271 270 269 269 269 269 270 270 271 271 271 271 271 271 271 271
255 256 256 257 257 258 258 258 258 259 259 259 259 259 260 260 260 260 260 261 261 261 261 261 261 262 262 262 262 262 263 263 263 264 264 265 265 266 267 267 268 268 268 268 269 269 269 269 269 269 270 270 270 271 271 272 272 273 273 273 273 273 273 273 273 273 272 272 271 270 269 269 268 267 267 268 269 270 271 272 272 273 273 274 274 274
Height
5735 5736 5738 5739 5741 5742 5743 5745 5747 5748 5750 5752 5753 5754 5755 5757 5758 5759 5761 5762 5763 5764 5765 5766 5767 5768 5769 5770 5771 5772 5773 5775 5777 5777 5777 5778 5779 5781 5783 5783 5784 5784 5783 5781 5780 5779 5779 5779 5779 5779 5780 5780 5782 5783 5785 5786 5787 5787 5787 5787 5788 5788 5788 5789 5789 5790 5790 5790 5790 5790 5789 5789 5789 5788 5788 5788 5788 5788 5788 5788 5787 5787 5786 5786 5786 5785
5732 5733 5735 5736 5737 5738 5740 5742 5744 5745 5746 5748 5749 5751 5752 5753 5754 5755 5757 5758 5759 5760 5761 5762 5763 5764 5765 5766 5767 5768 5769 5770 5772 5773 5774 5775 5777 5779 5781 5782 5783 5781 5779 5778 5776 5776 5776 5776 5776 5776 5776 5777 5778 5779 5781 5782 5783 5783 5783 5784 5784 5784 5785 5785 5786 5786 5787 5787 5787 5787 5786 5786 5786 5785 5785 5785 5785 5784 5784 5784 5783 5783 5783 5782 5782 5782
5730 5731 5732 5733 5734 5736 5737 5738 5740 5742 5743 5744 5746 5747 5748 5749 5750 5751 5753 5754 5755 5756 5757 5758 5759 5760 5761 5762 5763 5764 5766 5767 5769 5771 5772 5773 5775 5777 5778 5779 5778 5777 5775 5773 5772 5772 5772 5773 5773 5773 5773 5773 5774 5775 5777 5778 5779 5780 5780 5780 5780 5781 5781 5782 5782 5782 5783 5783 5783 5783 5783 5783 5782 5782 5782 5781 5781 5781 5781 5780 5780 5779 5779 5778 5778 5778
5727 5728 5729 5730 5731 5733 5733 5735 5737 5738 5739 5741 5742 5743 5745 5745 5746 5747 5748 5750 5751 5752 5753 5754 5755 5756 5757 5758 5759 5761 5762 5765 5767 5768 5769 5770 5771 5772 5773 5773 5772 5771 5770 5769 5769 5769 5769 5770 5770 5770 5770 5770 5770 5771 5772 5773 5774 5775 5776 5776 5776 5777 5777 5778 5778 5778 5778 5778 5778 5779 5779 5779 5779 5778 5778 5778 5778 5777 5777 5777 5776 5776 5775 5775 5774 5774
5723 5723 5725 5727 5728 5729 5730 5732 5733 5734 5736 5737 5738 5739 5740 5741 5742 5743 5744 5746 5747 5748 5748 5750 5751 5752 5752 5753 5755 5757 5759 5761 5763 5765 5765 5765 5765 5765 5766 5766 5767 5768 5768 5768 5768 5768 5768 5768 5768 5768 5767 5767 5767 5767 5768 5769 5770 5771 5771 5772 5772 5772 5773 5773 5773 5774 5774 5774 5774 5774 5774 5775 5775 5775 5774 5774 5774 5773 5773 5773 5773 5772 5772 5771 5771 5770
5719 5720 5721 5723 5724 5725 5727 5728 5729 5731 5732 5733 5733 5735 5736 5737 5738 5739 5740 5742 5743 5743 5744 5745 5747 5748 5748 5750 5752 5754 5756 5758 5760 5761 5760 5759 5759 5759 5760 5762 5764 5765 5765 5766 5766 5766 5765 5765 5765 5764 5764 5763 5763 5764 5764 5765 5765 5766 5766 5767 5767 5768 5769 5769 5769 5769 5770 5770 5770 5770 5770 5770 5770 5770 5770 5770 5770 5769 5769 5769 5768 5768 5768 5767 5767 5766
5715 5717 5718 5719 5720 5722 5723 5724 5725 5726 5728 5728 5729 5731 5732 5733 5734 5735 5736 5737 5738 5739 5740 5741 5743 5744 5745 5746 5748 5750 5752 5753 5755 5756 5755 5754 5755 5756 5757 5758 5760 5761 5762 5762 5762 5762 5762 5761 5761 5761 5760 5760 5760 5761 5761 5762 5762 5762 5762 5762 5763 5764 5765 5765 5765 5765 5765 5766 5766 5766 5766 5766 5766 5766 5766 5766 5766 5765 5765 5765 5764 5764 5763 5763 5763 5762
5712 5713 5715 5716 5717 5718 5719 5720 5721 5722 5723 5725 5726 5727 5728 5729 5730 5731 5732 5733 5735 5735 5736 5738 5739 5740 5741 5743 5744 5746 5748 5748 5749 5750 5750 5751 5752 5753 5753 5754 5755 5756 5757 5757 5757 5757 5757 5757 5757 5757 5757 5757 5758 5758 5758 5758 5758 5758 5758 5758 5759 5760 5761 5761 5761 5761 5761 5761 5762 5762 5762 5762 5762 5762 5762 5762 5762 5761 5761 5761 5760 5760 5759 5759 5758 5758
5708 5709 5711 5712 5713 5714 5715 5716 5717 5718 5719 5721 5722 5723 5724 5725 5726 5727 5728 5729 5730 5731 5733 5734 5735 5736 5738 5739 5741 5742 5743 5744 5744 5745 5746 5748 5749 5749 5750 5750 5751 5751 5752 5752 5752 5752 5752 5753 5753 5753 5753 5754 5754 5754 5754 5754 5754 5754 5754 5755 5755 5756 5756 5756 5756 5756 5757 5757 5758 5758 5758 5758 5758 5758 5758 5758 5757 5757 5757 5756 5756 5756 5755 5754 5754 5754
5704 5705 5707 5708 5709 5710 5711 5712 5713 5714 5715 5716 5718 5719 5720 5722 5723 5724 5725 5725 5726 5727 5729 5730 5731 5733 5734 5736 5737 5738 5739 5740 5741 5742 5743 5744 5745 5745 5746 5746 5746 5747 5747 5748 5748 5749 5749 5749 5750 5750 5750 5750 5751 5751 5750 5750 5750 5750 5750 5751 5751 5752 5752 5752 5752 5752 5752 5753 5753 5753 5753 5753 5753 5753 5753 5753 5753 5753 5752 5752 5752 5751 5751 5750 5750 5749
5700 5701 5703 5704 5705 5707 5708 5708 5709 5710 5711 5713 5713 5715 5716 5717 5719 5720 5721 5722 5723 5724 5726 5727 5728 5729 5731 5733 5733 5734 5735 5736 5737 5738 5739 5740 5741 5741 5741 5741 5741 5742 5743 5744 5745 5745 5746 5746 5746 5746 5747 5747 5746 5746 5746 5746 5746 5746 5746 5746 5747 5747 5747 5747 5748 5748 5748 5748 5749 5749 5749 5749 5749 5749 5749 5748 5748 5748 5748 5748 5748 5747 5747 5746 5746 5745
5696 5697 5699 5700 5701 5703 5704 5705 5706 5707 5708 5709 5710 5711 5712 5713 5715 5716 5717 5718 5719 5721 5723 5724 5725 5726 5728 5729 5730 5731 5732 5732 5733 5734 5735 5736 5736 5736 5736 5736 5737 5738 5739 5740 5741 5741 5742 5742 5742 5742 5742 5742 5742 5742 5742 5742 5742 5742 5742 5742 5743 5743 5743 5743 5743 5744 5744 5744 5745 5745 5745 5744 5744 5744 5744 5744 5744 5744 5743 5743 5743 5743 5743 5742 5741 5741
5692 5693 5695 5696 5697 5698 5699 5701 5702 5703 5704 5705 5706 5707 5708 5709 5711 5713 5714 5715 5716 5718 5719 5721 5722 5723 5724 5725 5726 5727 5728 5728 5729 5729 5730 5731 5731 5731 5731 5732 5732 5733 5734 5735 5736 5736 5737 5738 5738 5738 5738 5738 5738 5738 5738 5738 5738 5738 5738 5738 5739 5739 5739 5739 5739 5740 5740 5740 5741 5741 5740 5740 5739 5739 5738 5738 5739 5739 5739 5739 5738 5738 5738 5738 5737 5737
5688 5690 5691 5692 5693 5694 5696 5697 5698 5699 5700 5701 5702 5703 5704 5706 5707 5709 5710 5712 5713 5714 5715 5717 5718 5719 5720 5721 5722 5723 5723 5724 5724 5725 5725 5726 5726 5727 5728 5728 5729 5729 5731 5732 5732 5732 5733 5733 5733 5733 5733 5734 5734 5734 5734 5734 5734 5734 5734 5735 5735 5735 5735 5736 5735 5736 5736 5736 5736 5736 5736 5735 5734 5734 5733 5733 5734 5734 5734 5734 5734 5733 5733 5733 5733 5732
5685 5686 5687 5688 5689 5690 5692 5693 5695 5696 5697 5698 5699 5700 5701 5702 5703 5704 5706 5707 5708 5709 5711 5713 5714 5714 5715 5716 5717 5718 5719 5719 5720 5720 5721 5721 5722 5723 5724 5724 5725 5725 5727 5728 5728 5728 5729 5730 5730 5729 5729 5730 5730 5730 5730 5730 5730 5731 5731 5731 5731 5732 5732 5732 5731 5731 5731 5731 5731 5731 5731 5731 5730 5729 5728 5728 5729 5730 5730 5729 5729 5729 5728 5728 5728 5728
5682 5683 5684 5685 5686 5687 5688 5689 5691 5692 5693 5694 5695 5697 5698 5698 5699 5700 5701 5703 5703 5705 5706 5708 5708 5709 5710 5710 5712 5713 5714 5715 5716 5716 5716 5717 5717 5718 5719 5720 5720 5721 5722 5723 5723 5723 5724 5725 5725 5725 5725 5725 5726 5726 5726 5726 5727 5727 5727 5727 5727 5727 5727 5727 5727 5727 5726 5726 5726 5726 5726 5726 5725 5724 5723 5724 5724 5725 5725 5725 5724 5724 5724 5723 5723 5723
5679 5680 5681 5682 5683 5683 5684 5686 5687 5688 5689 5690 5692 5693 5694 5694 5695 5696 5698 5699 5700 5701 5702 5702 5703 5704 5704 5706 5707 5708 5710 5711 5711 5711 5712 5712 5712 5713 5714 5716 5716 5716 5716 5718 5718 5719 5719 5720 5720 5720 5721 5721 5721 5722 5722 5722 5722 5722 5723 5723 5723 5723 5723 5722 5722 5722 5721 5721 5721 5721 5721 5721 5720 5719 5719 5719 5720 5720 5721 5720 5720 5719 5719 5719 5718 5718
5676 5678 5678 5679 5679 5680 5681 5682 5683 5685 5686 5687 5688 5689 5690 5691 5692 5693 5694 5695 5696 5697 5698 5698 5699 5700 5700 5702 5703 5704 5706 5707 5707 5707 5707 5707 5707 5708 5709 5710 5711 5711 5712 5713 5713 5714 5715 5715 5715 5715 5716 5716 5717 5717 5717 5717 5717 5717 5718 5718 5718 5718 5718 5717 5717 5717 5717 5717 5716 5716 5716 5716 5715 5715 5715 5715 5716 5716 5716 5716 5715 5715 5715 5714 5714 5714
5673 5675 5676 5676 5676 5677 5678 5679 5680 5681 5682 5683 5684 5685 5686 5687 5688 5689 5691 5692 5693 5693 5694 5695 5696 5697 5698 5699 5699 5700 5702 5703 5703 5702 5702 5703 5703 5703 5705 5706 5706 5706 5707 5708 5708 5709 5710 5710 5710 5711 5711 5711 5712 5712 5712 5712 5712 5712 5712 5713 5713 5713 5713 5713 5713 5712 5712 5712 5712 5712 5712 5711 5711 5711 5711 5711 5711 5711 5711 5711 5711 5710 5710 5710 5710 5709
5669 5671 5672 5672 5673 5673 5674 5675 5676 5677 5678 5679 5680 5681 5682 5683 5684 5686 5687 5688 5689 5690 5691 5692 5693 5694 5695 5696 5697 5697 5698 5699 5699 5698 5698 5699 5699 5700 5701 5702 5702 5703 5703 5703 5704 5705 5706 5706 5706 5706 5706 5707 5707 5707 5707 5707 5707 5707 5707 5708 5708 5708 5708 5708 5708 5708 5708 5708 5708 5707 5707 5707 5707 5707 5707 5707 5707 5707 5707 5707 5706 5706 5706 5706 5705 5705
5665 5666 5667 5668 5669 5669 5670 5671 5672 5673 5673 5674 5676 5678 5678 5679 5681 5682 5683 5684 5685 5686 5687 5688 5689 5690 5691 5693 5693 5693 5693 5695 5695 5695 5695 5696 5697 5697 5698 5698 5698 5698 5698 5699 5699 5700 5701 5701 5701 5701 5701 5701 5702 5702 5702 5702 5702 5703 5703 5703 5703 5703 5703 5703 5703 5703 5703 5703 5703 5703 5703 5703 5703 5702 5702 5702 5702 5702 5702 5702 5702 5702 5702 5702 5701 5701
5660 5661 5662 5663 5664 5664 5665 5666 5667 5668 5669 5671 5672 5673 5674 5676 5677 5678 5679 5680 5681 5682 5683 5684 5685 5686 5687 5688 5688 5688 5689 5691 5691 5691 5692 5693 5693 5693 5694 5695 5695 5694 5694 5694 5695 5696 5696 5696 5696 5696 5696 5697 5697 5697 5697 5698 5698 5698 5698 5698 5698 5698 5698 5699 5699 5699 5699 5699 5698 5698 5698 5698 5698 5698 5698 5698 5698 5698 5698 5698 5698 5698 5697 5697 5697 5697
5655 5656 5657 5658 5659 5660 5661 5662 5663 5664 5665 5667 5668 5669 5670 5671 5673 5674 5675 5677 5678 5678 5679 5680 5681 5682 5683 5683 5683 5684 5685 5686 5687 5687 5688 5688 5688 5689 5690 5691 5691 5690 5690 5690 5691 5691 5691 5691 5691 5691 5692 5692 5692 5693 5693 5693 5693 5693 5693 5694 5694 5694 5694 5694 5694 5694 5694 5694 5694 5694 5694 5693 5693 5693 5693 5693 5693 5693 5693 5693 5693 5693 5693 5693 5693 5692
5650 5651 5653 5654 5655 5656 5657 5658 5659 5660 5662 5663 5663 5665 5666 5667 5668 5670 5671 5672 5673 5674 5675 5676 5677 5678 5678 5679 5680 5680 5681 5682 5682 5683 5683 5683 5683 5684 5685 5686 5686 5686 5685 5686 5686 5687 5687 5687 5687 5688 5688 5688 5688 5688 5689 5689 5689 5689 5689 5689 5689 5689 5689 5689 5689 5689 5689 5689 5689 5689 5689 5689 5689 5689 5689 5689 5689 5689 5689 5689 5689 5688 5688 5688 5688 5688
5645 5647 5648 5649 5651 5652 5653 5654 5655 5656 5657 5658 5659 5661 5662 5663 5664 5665 5666 5668 5669 5670 5671 5672 5673 5673 5674 5675 5676 5676 5676 5677 5678 5678 5679 5678 5678 5679 5680 5681 5681 5681 5681 5681 5682 5683 5683 5683 5683 5684 5684 5684 5684 5684 5684 5684 5685 5685 5685 5685 5685 5685 5685 5685 5685 5685 5685 5685 5685 5685 5685 5685 5684 5684 5684 5684 5684 5684 5684 5684 5684 5684 5684 5684 5684 5683
5641 5642 5643 5645 5646 5648 5648 5650 5651 5652 5653 5654 5655 5656 5658 5658 5660 5661 5662 5663 5664 5665 5666 5667 5667 5668 5669 5670 5672 5672 5671 5672 5673 5673 5674 5673 5674 5675 5675 5676 5677 5677 5677 5676 5677 5678 5679 5679 5679 5679 5680 5680 5680 5680 5680 5680 5680 5680 5680 5680 5680 5680 5680 5680 5680 5680 5680 5680 5680 5680 5680 5680 5680 5680 5680 5680 5680 5680 5680 5680 5680 5680 5680 5680 5679 5679
5636 5638 5639 5640 5642 5643 5644 5645 5647 5648 5649 5650 5651 5652 5653 5654 5655 5657 5658 5658 5659 5660 5661 5662 5663 5663 5664 5666 5667 5667 5667 5668 5668 5669 5669 5669 5670 5670 5670 5671 5672 5673 5673 5672 5673 5674 5675 5675 5675 5675 5676 5676 5676 5676 5676 5675 5675 5675 5675 5675 5675 5675 5675 5675 5675 5675 5675 5675 5675 5676 5676 5676 5676 5676 5676 5676 5676 5676 5676 5676 5676 5676 5675 5675 5675 5674
5631 5633 5634 5636 5637 5638 5639 5641 5642 5643 5645 5646 5647 5648 5649 5650 5651 5652 5652 5653 5654 5656 5657 5657 5658 5658 5660 5661 5662 5662 5662 5663 5664 5664 5664 5665 5666 5666 5665 5666 5667 5668 5668 5668 5668 5669 5671 5671 5671 5671 5671 5671 5671 5671 5671 5671 5670 5670 5670 5670 5670 5670 5670 5670 5670 5670 5670 5670 5671 5671 5671 5671 5671 5671 5671 5671 5671 5671 5671 5671 5671 5671 5671 5670 5670 5670
5627 5628 5630 5631 5633 5634 5635 5636 5637 5638 5640 5641 5642 5643 5644 5646 5647 5647 5647 5648 5650 5651 5652 5652 5653 5654 5655 5656 5657 5657 5658 5658 5658 5658 5659 5661 5662 5661 5660 5661 5663 5664 5663 5663 5664 5665 5666 5666 5666 5666 5666 5666 5665 5665 5666 5665 5665 5665 5665 5665 5665 5665 5665 5665 5665 5665 5666 5666 5666 5666 5666 5666 5666 5666 5666 5666 5666 5666 5666 5666 5666 5666 5666 5665 5665 5664
5622 5623 5625 5627 5628 5629 5630 5632 5633 5634 5635 5636 5638 5638 5639 5641 5642 5642 5642 5643 5645 5647 5647 5647 5648 5649 5650 5651 5652 5652 5653 5653 5652 5653 5655 5657 5657 5656 5655 5657 5658 5659 5658 5659 5660 5661 5661 5661 5661 5661 5662 5661 5660 5660 5660 5660 5660 5660 5660 5660 5660 5660 5661 5661 5661 5661 5661 5661 5661 5661 5661 5661 5661 5661 5661 5661 5661 5660 5660 5660 5661 5661 5660 5660 5660 5659
5618 5619 5621 5622 5623 5625 5626 5628 5628 5630 5631 5632 5633 5634 5635 5636 5637 5638 5638 5639 5641 5642 5642 5643 5643 5645 5646 5647 5647 5648 5647 5647 5647 5648 5650 5652 5652 5650 5651 5653 5654 5653 5653 5654 5655 5656 5655 5655 5655 5656 5656 5656 5655 5654 5653 5654 5655 5655 5655 5655 5655 5655 5655 5656 5656 5656 5656 5656 5656 5656 5656 5656 5656 5656 5656 5656 5655 5655 5655 5655 5655 5655 5655 5655 5654 5654
5613 5615 5616 5618 5619 5620 5622 5623 5624 5625 5627 5628 5628 5629 5630 5631 5632 5633 5634 5634 5635 5636 5638 5638 5639 5640 5641 5642 5643 5643 5642 5641 5641 5643 5646 5648 5647 5646 5646 5648 5649 5648 5648 5648 5650 5650 5650 5649 5649 5649 5650 5651 5650 5649 5648 5648 5649 5650 5650 5650 5650 5650 5650 5650 5651 5651 5651 5651 5651 5651 5651 5651 5651 5651 5651 5651 5651 5650 5650 5650 5650 5650 5650 5649 5649 5649
5609 5610 5612 5613 5614 5616 5618 5619 5620 5621 5622 5623 5624 5625 5626 5626 5627 5628 5629 5629 5630 5631 5632 5633 5634 5635 5636 5637 5638 5638 5637 5637 5636 5638 5640 5643 5643 5642 5642 5643 5644 5643 5643 5643 5643 5645 5645 5645 5644 5643 5643 5644 5644 5644 5644 5643 5644 5644 5644 5645 5645 5645 5644 5645 5646 5646 5646 5646 5646 5646 5646 5646 5646 5646 5646 5646 5646 5646 5645 5645 5645 5645 5645 5645 5644 5644
5604 5606 5607 5609 5610 5612 5613 5614 5616 5617 5618 5619 5620 5621 5622 5622 5623 5624 5624 5624 5625 5626 5627 5628 5629 5630 5631 5632 5633 5633 5633 5632 5631 5632 5635 5638 5638 5638 5637 5638 5639 5638 5638 5638 5638 5639 5640 5640 5640 5639 5638 5638 5638 5638 5639 5639 5638 5638 5639 5639 5640 5639 5639 5639 5640 5641 5640 5640 5640 5640 5640 5640 5641 5641 5641 5641 5641 5641 5641 5641 5641 5641 5640 5640 5640 5639
5600 5602 5603 5605 5606 5607 5608 5610 5611 5613 5614 5615 5616 5616 5617 5618 5619 5619 5620 5621 5621 5622 5623 5624 5625 5626 5626 5627 5628 5628 5628 5627 5626 5628 5630 5632 5633 5633 5633 5633 5633 5633 5633 5633 5633 5633 5634 5635 5635 5635 5634 5633 5633 5633 5633 5633 5633 5633 5633 5633 5633 5633 5634 5634 5634 5635 5635 5634 5634 5634 5634 5635 5635 5635 5635 5635 5635 5635 5635 5635 5635 5636 5636 5635 5635 5635
5597 5598 5600 5601 5602 5603 5604 5606 5607 5608 5609 5610 5611 5611 5612 5613 5614 5615 5615 5616 5617 5618 5619 5620 5620 5621 5622 5622 5623 5623 5623 5622 5622 5624 5626 5627 5627 5628 5628 5628 5627 5627 5628 5628 5628 5627 5628 5629 5630 5630 5629 5628 5628 5628 5627 5628 5628 5628 5628 5628 5628 5628 5628 5628 5628 5629 5629 5629 5628 5628 5628 5629 5629 5629 5629 5629 5630 5630 5630 5630 5630 5630 5631 5630 5630 5630
5593 5595 5596 5597 5598 5599 5600 5601 5602 5603 5604 5605 5606 5606 5607 5608 5608 5609 5610 5611 5613 5613 5614 5615 5616 5616 5617 5617 5618 5618 5618 5617 5618 5619 5621 5621 5622 5622 5623 5623 5621 5621 5622 5623 5622 5621 5622 5623 5624 5624 5623 5623 5623 5622 5622 5621 5622 5623 5623 5622 5622 5622 5623 5623 5623 5623 5623 5623 5623 5622 5623 5623 5623 5624 5624 5624 5624 5624 5624 5624 5624 5625 5625 5625 5625 5625
5590 5591 5592 5593 5594 5595 5596 5597 5598 5598 5599 5600 5601 5602 5602 5603 5603 5604 5605 5606 5607 5608 5609 5610 5610 5611 5611 5612 5612 5612 5612 5613 5613 5614 5615 5615 5616 5617 5617 5617 5616 5615 5616 5616 5616 5616 5616 5617 5618 5618 5617 5617 5617 5617 5616 5616 5617 5617 5617 5616 5616 5617 5617 5617 5617 5617 5618 5617 5617 5617 5617 5617 5618 5618 5618 5618 5618 5618 5619 5619 5619 5619 5620 5620 5620 5620
5586 5586 5587 5588 5589 5591 5592 5592 5593 5593 5594 5596 5596 5597 5597 5598 5599 5599 5600 5601 5602 5603 5604 5604 5605 5605 5606 5606 5606 5607 5607 5608 5608 5608 5608 5609 5610 5611 5611 5611 5610 5610 5609 5610 5610 5611 5611 5611 5611 5611 5611 5611 5611 5610 5610 5610 5611 5611 5611 5611 5611 5611 5611 5611 5611 5612 5612 5611 5611 5611 5611 5611 5612 5612 5613 5612 5612 5613 5613 5613 5613 5613 5614 5615 5615 5615
5581 5582 5583 5584 5585 5586 5587 5588 5588 5589 5590 5591 5592 5592 5593 5593 5594 5594 5595 5596 5597 5598 5598 5599 5599 5600 5600 5601 5601 5602 5602 5602 5603 5603 5603 5603 5604 5604 5605 5605 5605 5604 5603 5603 5604 5605 5605 5606 5605 5605 5605 5605 5605 5605 5604 5604 5605 5605 5605 5606 5606 5605 5604 5604 5606 5606 5606 5605 5605 5605 5606 5606 5606 5606 5607 5607 5607 5607 5607 5608 5608 5608 5608 5609 5610 5610
5578 5578 5579 5580 5581 5582 5583 5583 5584 5585 5586 5587 5588 5588 5588 5589 5589 5590 5591 5591 5592 5593 5593 5594 5594 5595 5595 5595 5596 5596 5597 5597 5597 5597 5598 5598 5598 5598 5599 5599 5599 5598 5598 5598 5599 5599 5599 5600 5600 5599 5599 5599 5599 5599 5599 5599 5599 5599 5600 5601 5601 5599 5598 5598 5600 5600 5600 5599 5599 5599 5600 5600 5600 5601 5601 5601 5601 5601 5601 5602 5602 5602 5603 5603 5604 5605
5574 5575 5575 5576 5577 5578 5579 5579 5580 5581 5582 5583 5583 5584 5584 5584 5585 5586 5586 5587 5588 5588 5588 5589 5589 5590 5590 5590 5591 5591 5592 5592 5592 5592 5592 5593 5593 5593 5593 5593 5593 5593 5593 5594 5594 5593 5593 5594 5594 5594 5594 5594 5594 5594 5594 5593 5593 5593 5595 5595 5594 5593 5593 5593 5594 5594 5594 5594 5594 5593 5594 5594 5595 5595 5594 5595 5595 5595 5596 5596 5597 5597 5597 5598 5598 5599
5570 5570 5571 5572 5573 5574 5575 5576 5576 5577 5578 5578 5579 5580 5580 5580 5581 5582 5583 5583 5583 5583 5583 5584 5585 5586 5586 5586 5586 5586 5587 5587 5588 5588 5588 5588 5588 5588 5588 5588 5588 5588 5588 5589 5589 5589 5588 5588 5589 5589 5589 5588 5589 5589 5589 5588 5588 5588 5589 5589 5589 5589 5589 5588 5588 5588 5589 5589 5588 5588 5588 5589 5589 5589 5589 5589 5590 5590 5590 5591 5591 5592 5592 5593 5593 5593
5566 5566 5567 5568 5569 5570 5571 5572 5572 5573 5573 5574 5575 5575 5576 5576 5577 5578 5578 5579 5579 5579 5579 5580 5581 5582 5582 5582 5582 5582 5582 5583 5583 5583 5583 5583 5583 5583 5584 5584 5584 5584 5584 5584 5584 5584 5584 5584 5584 5584 5584 5584 5584 5585 5584 5583 5583 5583 5584 5583 5584 5584 5584 5583 5582 5582 5583 5584 5583 5583 5583 5584 5584 5584 5584 5584 5584 5585 5586 5586 5586 5587 5587 5588 5588 5588
5562 5563 5563 5564 5565 5566 5567 5568 5568 5568 5569 5570 5571 5571 5572 5572 5573 5574 5574 5574 5574 5575 5575 5576 5577 5577 5578 5577 5577 5577 5578 5578 5578 5578 5579 5579 5579 5579 5579 5580 5579 5579 5579 5580 5580 5580 5580 5580 5579 5579 5579 5580 5580 5580 5579 5579 5579 5579 5579 5578 5579 5579 5579 5578 5578 5578 5579 5579 5578 5578 5578 5579 5579 5579 5579 5579 5579 5580 5581 5581 5581 5582 5582 5582 5583 5583
5558 5559 5559 5560 5561 5562 5563 5563 5564 5564 5565 5566 5567 5567 5568 5568 5569 5569 5570 5570 5570 5571 5571 5572 5573 5573 5573 5573 5573 5573 5574 5574 5574 5574 5574 5574 5575 5575 5575 5575 5575 5575 5575 5575 5575 5575 5575 5575 5575 5575 5575 5575 5576 5575 5575 5574 5575 5575 5574 5574 5574 5574 5574 5573 5573 5573 5574 5574 5574 5573 5573 5574 5575 5575 5575 5574 5574 5575 5576 5576 5576 5577 5577 5577 5577 5578
5554 5555 5556 5556 5557 5558 5558 5559 5560 5561 5562 5562 5563 5563 5563 5564 5564 5565 5565 5566 5566 5567 5567 5567 5568 5569 5569 5568 5568 5569 5570 5570 5570 5570 5570 5570 5571 5571 5571 5571 5571 5571 5571 5571 5571 5571 5571 5571 5571 5571 5571 5571 5571 5570 5569 5570 5570 5571 5570 5569 5569 5569 5570 5569 5568 5568 5569 5570 5569 5569 5568 5570 5570 5571 5570 5570 5570 5571 5571 5571 5572 5572 5572 5572 5573 5573
5550 5551 5552 5553 5553 5554 5555 5555 5556 5557 5558 5558 5558 5558 5559 5560 5560 5561 5561 5561 5562 5563 5563 5563 5564 5564 5564 5564 5565 5565 5566 5566 5566 5566 5566 5566 5567 5567 5567 5567 5567 5567 5567 5567 5567 5567 5566 5566 5566 5566 5566 5566 5566 5565 5565 5565 5566 5566 5566 5565 5565 5565 5565 5564 5564 5564 5564 5565 5565 5564 5564 5565 5566 5566 5566 5566 5567 5567 5567 5567 5567 5567 5567 5568 5568 5568
5546 5547 5548 5549 5549 5550 5551 5551 5552 5553 5553 5554 5554 5554 5555 5555 5556 5557 5557 5557 5558 5558 5559 5559 5559 5559 5560 5560 5561 5561 5562 5562 5562 5562 5562 5562 5563 5563 5563 5563 5563 5563 5563 5563 5563 5562 5562 5562 5562 5562 5562 5562 5562 5561 5561 5561 5561 5562 5561 5561 5561 5560 5560 5560 5559 5559 5560 5560 5560 5560 5560 5561 5562 5562 5562 5563 5563 5563 5562 5562 5562 5562 5562 5563 5563 5563
5543 5543 5544 5545 5546 5546 5547 5547 5548 5549 5549 5550 5550 5551 5551 5551 5552 5553 5553 5553 5553 5554 5555 5555 5555 5555 5555 5556 5556 5557 5557 5558 5558 5558 5558 5558 5558 5559 5559 5559 5559 5559 5559 5558 5558 5558 5558 5558 5558 5557 5557 5557 5558 5557 5557 5556 5556 5557 5557 5557 5556 5556 5556 5556 5555 5555 5556 5556 5556 5556 5557 5557 5557 5558 5558 5558 5558 5558 5558 5558 5558 5558 5558 5558 5559 5559
5539 5540 5540 5541 5542 5542 5543 5543 5544 5545 5545 5545 5546 5547 5547 5548 5548 5548 5549 5549 5549 5550 5550 5551 5551 5551 5551 5551 5552 5552 5553 5553 5553 5553 5554 5554 5554 5555 5555 5555 5555 5555 5555 5554 5554 5554 5554 5554 5553 5553 5553 5553 5553 5553 5553 5552 5552 5552 5553 5552 5552 5552 5552 5552 5551 5551 5552 5552 5552 5552 5552 5553 5553 5553 5553 5554 5554 5554 5553 5553 5553 5553 5553 5554 5554 5554